MOLNIYA 3-27

Last updated on Jan. 26, 2021, 8:12 a.m. UTC

1 16393U 85117A   21025.22121586  .00000079  00000-0  00000-0 0  9997
2 16393  64.6243 141.9714 6668449 253.7763  28.0228  2.12398034263388
UTC
Height (km)
Latitude
Longitude
Inclination
Orbital Period
UTC large
Height (km)
Speed (km/s)
/
Latitude / Longitude
Inclination (degrees)
Orbital Period (minutes)
Azimuth
Elevation
Range (km)
Doppler Factor
iOS Compass Heading
iOS Angle

Next 30 passes for location: Hong Kong

Rise time Rise Azimuth (degrees) Set time Set Azimuth (degrees) Duration Max altitude (degrees)

No matching passes for this satellites